AAL1904 KCLT-KBOS

Flight info

Callsign AAL1904
Flight time 1h 32m
Altitude 37000
Route BARMY5 RDU NOWAE Q87 GEARS BBOBO Q22 RBV Q419 JFK ROBUC3
Aircraft B738/M-SDE2E3FGHIRWXY/LB1

Departure

Time 2026-05-07 21:16
Airport Charlotte Douglas International Airport (KCLT)

Arrival

Time 2026-05-07 22:48
Airport Boston Logan International Airport (KBOS)
Time Latitude Longitude Altitude Speed Heading
2026-05-07 20:57 35.22044 -80.93896 732 ft 0 kts 291°
2026-05-07 21:07 35.22043 -80.93894 732 ft 1 kts 291°
2026-05-07 21:07 35.22039 -80.93877 732 ft 1 kts 289°
2026-05-07 21:07 35.22036 -80.93866 732 ft 2 kts 284°
2026-05-07 21:07 35.22036 -80.93848 732 ft 2 kts 257°
2026-05-07 21:08 35.22041 -80.93831 733 ft 2 kts 234°
2026-05-07 21:08 35.22052 -80.93818 733 ft 2 kts 212°
2026-05-07 21:08 35.22066 -80.93811 733 ft 2 kts 190°
2026-05-07 21:08 35.22074 -80.93810 733 ft 1 kts 177°
2026-05-07 21:09 35.22080 -80.93810 733 ft 0 kts 176°
2026-05-07 21:11 35.22072 -80.93810 733 ft 5 kts 175°
2026-05-07 21:11 35.21928 -80.93903 730 ft 14 kts 229°
2026-05-07 21:12 35.21849 -80.93974 728 ft 15 kts 193°
2026-05-07 21:12 35.21758 -80.93928 728 ft 15 kts 137°
2026-05-07 21:12 35.21672 -80.93825 728 ft 16 kts 131°
2026-05-07 21:12 35.21602 -80.93719 729 ft 16 kts 129°
2026-05-07 21:13 35.21496 -80.93665 728 ft 21 kts 177°
2026-05-07 21:13 35.21334 -80.93652 725 ft 23 kts 176°
2026-05-07 21:13 35.21167 -80.93638 722 ft 24 kts 176°
2026-05-07 21:13 35.21000 -80.93622 719 ft 24 kts 175°
2026-05-07 21:14 35.20832 -80.93609 717 ft 24 kts 176°
2026-05-07 21:14 35.20664 -80.93595 715 ft 24 kts 176°
2026-05-07 21:14 35.20495 -80.93582 712 ft 24 kts 174°
2026-05-07 21:14 35.20335 -80.93568 711 ft 18 kts 176°
2026-05-07 21:15 35.20229 -80.93549 710 ft 13 kts 141°
2026-05-07 21:15 35.20221 -80.93444 710 ft 12 kts 51°
2026-05-07 21:15 35.20306 -80.93431 710 ft 14 kts 356°
2026-05-07 21:15 35.20712 -80.93469 714 ft 102 kts 356°
2026-05-07 21:16 35.21687 -80.93546 786 ft 170 kts 355°
2026-05-07 21:16 35.22825 -80.93639 1835 ft 162 kts 351°
2026-05-07 21:16 35.23875 -80.93800 2711 ft 156 kts 353°
2026-05-07 21:16 35.24971 -80.93507 3275 ft 178 kts 31°
2026-05-07 21:17 35.25688 -80.92192 3825 ft 204 kts 73°
2026-05-07 21:17 35.25775 -80.90383 4421 ft 223 kts 90°
2026-05-07 21:17 35.25695 -80.88406 5007 ft 243 kts 91°
2026-05-07 21:17 35.25618 -80.86260 5587 ft 263 kts 91°
2026-05-07 21:18 35.25547 -80.84018 6440 ft 269 kts 91°
2026-05-07 21:18 35.25510 -80.81724 7166 ft 282 kts 90°
2026-05-07 21:18 35.25502 -80.79208 7730 ft 302 kts 89°
2026-05-07 21:18 35.25525 -80.76663 8590 ft 307 kts 89°
2026-05-07 21:19 35.25554 -80.73972 9228 ft 324 kts 89°
2026-05-07 21:19 35.25536 -80.71163 9955 ft 334 kts 91°
2026-05-07 21:19 35.25486 -80.68321 10666 ft 346 kts 92°
2026-05-07 21:19 35.25431 -80.65328 11202 ft 363 kts 91°
2026-05-07 21:20 35.25383 -80.62141 11676 ft 382 kts 91°
2026-05-07 21:20 35.25355 -80.58855 12154 ft 399 kts 90°
2026-05-07 21:20 35.25344 -80.55409 12619 ft 416 kts 90°
2026-05-07 21:20 35.25330 -80.51785 13124 ft 433 kts 90°
2026-05-07 21:21 35.25318 -80.48043 13618 ft 445 kts 89°
2026-05-07 21:21 35.25476 -80.44254 14272 ft 453 kts 84°
2026-05-07 21:21 35.25864 -80.40391 14985 ft 461 kts 80°
2026-05-07 21:21 35.26387 -80.36491 15557 ft 470 kts 78°
2026-05-07 21:22 35.26973 -80.32496 16210 ft 476 kts 79°
2026-05-07 21:22 35.27553 -80.28458 16758 ft 485 kts 79°
2026-05-07 21:22 35.28119 -80.24399 17390 ft 491 kts 79°
2026-05-07 21:22 35.28685 -80.20231 17875 ft 500 kts 80°
2026-05-07 21:23 35.29246 -80.16007 18467 ft 505 kts 79°
2026-05-07 21:23 35.29850 -80.11783 19080 ft 510 kts 77°
2026-05-07 21:23 35.30667 -80.07517 19556 ft 517 kts 73°
2026-05-07 21:23 35.31701 -80.03342 20134 ft 520 kts 69°
2026-05-07 21:24 35.32879 -79.99166 20665 ft 525 kts 68°
2026-05-07 21:24 35.34147 -79.94931 21151 ft 530 kts 67°
2026-05-07 21:24 35.35442 -79.90704 21662 ft 535 kts 66°
2026-05-07 21:24 35.36746 -79.86450 22151 ft 540 kts 66°
2026-05-07 21:25 35.38065 -79.82113 22626 ft 545 kts 67°
2026-05-07 21:25 35.39376 -79.77749 23095 ft 550 kts 68°
2026-05-07 21:25 35.40695 -79.73305 23556 ft 555 kts 68°
2026-05-07 21:25 35.42005 -79.68844 24097 ft 558 kts 68°
2026-05-07 21:26 35.43303 -79.64392 24528 ft 563 kts 68°
2026-05-07 21:26 35.44612 -79.59872 24990 ft 567 kts 67°
2026-05-07 21:26 35.45940 -79.55268 25535 ft 569 kts 67°
2026-05-07 21:26 35.47245 -79.50728 26233 ft 567 kts 67°
2026-05-07 21:27 35.48540 -79.46209 26867 ft 566 kts 66°
2026-05-07 21:27 35.49838 -79.41679 27456 ft 566 kts 66°
2026-05-07 21:27 35.51137 -79.37138 27992 ft 567 kts 66°
2026-05-07 21:27 35.52449 -79.32552 28487 ft 568 kts 67°
2026-05-07 21:28 35.53752 -79.27992 28987 ft 568 kts 67°
2026-05-07 21:28 35.55059 -79.23406 29500 ft 568 kts 66°
2026-05-07 21:28 35.56363 -79.18840 29995 ft 567 kts 66°
2026-05-07 21:28 35.57771 -79.14339 30459 ft 565 kts 63°
2026-05-07 21:29 35.59434 -79.09951 30940 ft 560 kts 56°
2026-05-07 21:29 35.61368 -79.05818 31399 ft 554 kts 50°
2026-05-07 21:29 35.63546 -79.01991 31804 ft 548 kts 44°
2026-05-07 21:29 35.65989 -78.98426 32228 ft 540 kts 37°
2026-05-07 21:30 35.68618 -78.95226 32681 ft 531 kts 31°
2026-05-07 21:30 35.71452 -78.92359 33179 ft 518 kts 25°
2026-05-07 21:30 35.74370 -78.89838 33552 ft 514 kts 21°
2026-05-07 21:30 35.77320 -78.87419 33944 ft 514 kts 21°
2026-05-07 21:31 35.80263 -78.84932 34335 ft 517 kts 23°
2026-05-07 21:31 35.83170 -78.82304 34837 ft 518 kts 25°
2026-05-07 21:31 35.85972 -78.79588 35445 ft 515 kts 27°
2026-05-07 21:31 35.88786 -78.76730 35785 ft 517 kts 28°
2026-05-07 21:32 35.91540 -78.73878 36156 ft 518 kts 28°
2026-05-07 21:32 35.94253 -78.71055 36410 ft 520 kts 28°
2026-05-07 21:32 35.97027 -78.68156 36703 ft 521 kts 28°
2026-05-07 21:32 35.99792 -78.65254 36884 ft 522 kts 29°
2026-05-07 21:33 36.05298 -78.59458 36886 ft 517 kts 29°
2026-05-07 21:33 36.10771 -78.53677 36888 ft 518 kts 28°
2026-05-07 21:34 36.16273 -78.47865 36890 ft 521 kts 29°
2026-05-07 21:34 36.21775 -78.42042 36892 ft 522 kts 29°
2026-05-07 21:35 36.27275 -78.36204 36891 ft 521 kts 29°
2026-05-07 21:35 36.32769 -78.30366 36890 ft 522 kts 29°
2026-05-07 21:36 36.38345 -78.24432 36890 ft 526 kts 30°
2026-05-07 21:36 36.43732 -78.18353 36889 ft 526 kts 33°
2026-05-07 21:37 36.49017 -78.12060 36891 ft 532 kts 34°
2026-05-07 21:37 36.54361 -78.05648 36903 ft 529 kts 33°
2026-05-07 21:38 36.59664 -77.99318 36909 ft 532 kts 33°
2026-05-07 21:38 36.65018 -77.92971 36913 ft 532 kts 33°
2026-05-07 21:39 36.70352 -77.86649 36918 ft 531 kts 33°
2026-05-07 21:39 36.75692 -77.80310 36915 ft 533 kts 33°
2026-05-07 21:40 36.81060 -77.73917 36912 ft 531 kts 33°
2026-05-07 21:40 36.86401 -77.67560 36908 ft 534 kts 33°
2026-05-07 21:41 36.91787 -77.61140 36907 ft 532 kts 33°
2026-05-07 21:41 36.97140 -77.54747 36904 ft 533 kts 33°
2026-05-07 21:42 37.02485 -77.48353 36901 ft 536 kts 33°
2026-05-07 21:42 37.07937 -77.42086 36906 ft 527 kts 28°
2026-05-07 21:43 37.10884 -77.39442 36904 ft 510 kts 18°
2026-05-07 21:43 37.13970 -77.37438 36911 ft 494 kts
2026-05-07 21:43 37.20336 -77.34341 36907 ft 486 kts
2026-05-07 21:44 37.26725 -77.31658 36912 ft 483 kts
2026-05-07 21:44 37.33095 -77.29015 36907 ft 483 kts
2026-05-07 21:45 37.39451 -77.26321 36908 ft 485 kts
2026-05-07 21:45 37.45832 -77.23570 36912 ft 483 kts
2026-05-07 21:46 37.52231 -77.20783 36903 ft 484 kts
2026-05-07 21:46 37.58561 -77.18008 36914 ft 484 kts
2026-05-07 21:47 37.64945 -77.15208 36907 ft 486 kts
2026-05-07 21:47 37.71291 -77.11996 36906 ft 497 kts 12°
2026-05-07 21:48 37.77472 -77.07953 36902 ft 506 kts 16°
2026-05-07 21:48 37.83628 -77.03605 36913 ft 509 kts 17°
2026-05-07 21:49 37.89794 -76.99220 36913 ft 506 kts 17°
2026-05-07 21:49 37.95930 -76.94886 36910 ft 507 kts 17°
2026-05-07 21:50 38.02098 -76.90565 36891 ft 507 kts 17°
2026-05-07 21:50 38.08243 -76.86269 36877 ft 504 kts 17°
2026-05-07 21:51 38.14373 -76.81986 36885 ft 503 kts 17°
2026-05-07 21:51 38.20546 -76.77651 36880 ft 509 kts 19°
2026-05-07 21:52 38.26540 -76.72604 36880 ft 517 kts 27°
2026-05-07 21:52 38.32184 -76.66888 36877 ft 521 kts 30°
2026-05-07 21:53 38.37727 -76.60873 36884 ft 524 kts 32°
2026-05-07 21:53 38.43188 -76.54857 36880 ft 523 kts 32°
2026-05-07 21:54 38.48747 -76.48799 36885 ft 522 kts 31°
2026-05-07 21:54 38.54273 -76.42833 36876 ft 520 kts 31°
2026-05-07 21:55 38.59759 -76.36929 36872 ft 521 kts 31°
2026-05-07 21:55 38.65324 -76.30932 36880 ft 519 kts 32°
2026-05-07 21:56 38.70829 -76.24981 36887 ft 518 kts 32°
2026-05-07 21:56 38.76326 -76.19023 36886 ft 520 kts 32°
2026-05-07 21:57 38.81860 -76.13020 36884 ft 523 kts 32°
2026-05-07 21:57 38.87385 -76.07008 36878 ft 524 kts 33°
2026-05-07 21:58 38.92935 -76.00951 36875 ft 522 kts 32°
2026-05-07 21:58 38.98437 -75.94888 36870 ft 524 kts 34°
2026-05-07 21:59 39.03814 -75.88577 36886 ft 524 kts 36°
2026-05-07 21:59 39.09127 -75.82146 36861 ft 524 kts 36°
2026-05-07 22:00 39.14440 -75.75703 36863 ft 526 kts 36°
2026-05-07 22:00 39.19805 -75.69225 36862 ft 525 kts 36°
2026-05-07 22:01 39.25042 -75.62916 36858 ft 525 kts 36°
2026-05-07 22:01 39.30376 -75.56499 36866 ft 525 kts 36°
2026-05-07 22:02 39.35724 -75.50053 36854 ft 526 kts 36°
2026-05-07 22:02 39.41065 -75.43607 36856 ft 526 kts 36°
2026-05-07 22:03 39.46455 -75.37089 36848 ft 527 kts 36°
2026-05-07 22:03 39.51819 -75.30584 36851 ft 528 kts 37°
2026-05-07 22:04 39.57147 -75.24100 36856 ft 525 kts 36°
2026-05-07 22:04 39.62493 -75.17587 36847 ft 530 kts 37°
2026-05-07 22:05 39.67835 -75.11068 36852 ft 527 kts 36°
2026-05-07 22:05 39.73250 -75.04727 36843 ft 525 kts 34°
2026-05-07 22:06 39.78835 -74.98515 36839 ft 527 kts 33°
2026-05-07 22:06 39.84379 -74.92364 36833 ft 525 kts 33°
2026-05-07 22:07 39.89944 -74.86170 36832 ft 523 kts 32°
2026-05-07 22:07 39.95725 -74.80464 36845 ft 518 kts 27°
2026-05-07 22:08 40.01606 -74.75112 36856 ft 520 kts 28°
2026-05-07 22:08 40.07108 -74.68877 36849 ft 530 kts 39°
2026-05-07 22:09 40.12160 -74.61792 36860 ft 532 kts 43°
2026-05-07 22:09 40.16978 -74.54588 36841 ft 535 kts 44°
2026-05-07 22:10 40.22045 -74.47490 36837 ft 526 kts 36°
2026-05-07 22:10 40.27599 -74.41252 36847 ft 524 kts 31°
2026-05-07 22:11 40.33278 -74.35340 36831 ft 524 kts 31°
2026-05-07 22:11 40.39038 -74.29347 36841 ft 523 kts 32°
2026-05-07 22:12 40.44731 -74.23328 36843 ft 527 kts 32°
2026-05-07 22:12 40.50343 -74.17113 36845 ft 529 kts 38°
2026-05-07 22:13 40.54984 -74.09478 36841 ft 540 kts 58°
2026-05-07 22:13 40.57994 -74.00438 36681 ft 539 kts 70°
2026-05-07 22:14 40.59200 -73.95792 36298 ft 534 kts 73°
2026-05-07 22:14 40.60302 -73.91160 35756 ft 532 kts 75°
2026-05-07 22:14 40.61332 -73.86536 35255 ft 529 kts 75°
2026-05-07 22:14 40.62407 -73.81895 34829 ft 528 kts 72°
2026-05-07 22:15 40.63801 -73.77473 34336 ft 527 kts 60°
2026-05-07 22:15 40.65790 -73.73368 33889 ft 521 kts 50°
2026-05-07 22:15 40.68021 -73.69672 33459 ft 516 kts 45°
2026-05-07 22:15 40.70377 -73.66141 32941 ft 514 kts 42°
2026-05-07 22:16 40.72816 -73.62664 32412 ft 512 kts 41°
2026-05-07 22:16 40.75228 -73.59287 31901 ft 511 kts 41°
2026-05-07 22:16 40.77662 -73.55865 31381 ft 509 kts 41°
2026-05-07 22:16 40.80051 -73.52474 30872 ft 508 kts 41°
2026-05-07 22:17 40.82168 -73.49439 30415 ft 507 kts 41°
2026-05-07 22:17 40.84712 -73.45758 29954 ft 503 kts 43°
2026-05-07 22:17 40.87030 -73.42371 29710 ft 495 kts 43°
2026-05-07 22:17 40.89294 -73.39043 29470 ft 487 kts 43°
2026-05-07 22:18 40.91553 -73.35715 29235 ft 490 kts 43°
2026-05-07 22:18 40.96285 -73.28758 28737 ft 524 kts 44°
2026-05-07 22:18 40.98724 -73.25159 28450 ft 528 kts 44°
2026-05-07 22:19 41.01181 -73.21508 27952 ft 525 kts 44°
2026-05-07 22:19 41.03619 -73.17875 27357 ft 522 kts 45°
2026-05-07 22:19 41.06011 -73.14301 26751 ft 520 kts 45°
2026-05-07 22:19 41.08389 -73.10744 26145 ft 517 kts 45°
2026-05-07 22:20 41.10791 -73.07152 25521 ft 514 kts 45°
2026-05-07 22:20 41.13159 -73.03611 24912 ft 511 kts 45°
2026-05-07 22:20 41.15518 -73.00084 24294 ft 507 kts 45°
2026-05-07 22:20 41.17854 -72.96568 23686 ft 504 kts 46°
2026-05-07 22:21 41.20044 -72.92900 23154 ft 499 kts 51°
2026-05-07 22:21 41.21948 -72.89154 23044 ft 484 kts 57°
2026-05-07 22:21 41.23619 -72.85364 23007 ft 471 kts 59°
2026-05-07 22:21 41.25165 -72.81516 23001 ft 474 kts 62°
2026-05-07 22:22 41.26668 -72.77599 22996 ft 476 kts 62°
2026-05-07 22:22 41.28156 -72.73647 22982 ft 478 kts 63°
2026-05-07 22:22 41.29644 -72.69668 22971 ft 480 kts 63°
2026-05-07 22:22 41.31125 -72.65708 22967 ft 477 kts 63°
2026-05-07 22:23 41.32590 -72.61800 22974 ft 478 kts 63°
2026-05-07 22:23 41.34079 -72.57838 22973 ft 480 kts 63°
2026-05-07 22:23 41.35561 -72.53903 22974 ft 478 kts 63°
2026-05-07 22:23 41.37062 -72.49921 22972 ft 478 kts 63°
2026-05-07 22:24 41.38554 -72.45966 22962 ft 479 kts 62°
2026-05-07 22:24 41.40051 -72.41999 22976 ft 479 kts 62°
2026-05-07 22:24 41.41540 -72.38051 22976 ft 479 kts 62°
2026-05-07 22:24 41.42982 -72.34225 22968 ft 481 kts 63°
2026-05-07 22:25 41.44479 -72.30238 22985 ft 480 kts 63°
2026-05-07 22:25 41.45971 -72.26259 22986 ft 481 kts 63°
2026-05-07 22:25 41.47485 -72.22216 22991 ft 482 kts 63°
2026-05-07 22:25 41.48958 -72.18272 22951 ft 482 kts 64°
2026-05-07 22:26 41.50432 -72.14277 22717 ft 479 kts 64°
2026-05-07 22:26 41.51879 -72.10323 22456 ft 475 kts 64°
2026-05-07 22:26 41.53318 -72.06366 22213 ft 473 kts 64°
2026-05-07 22:26 41.54748 -72.02425 21971 ft 472 kts 64°
2026-05-07 22:27 41.56167 -71.98480 21737 ft 470 kts 65°
2026-05-07 22:27 41.57471 -71.94532 21490 ft 466 kts 68°
2026-05-07 22:27 41.58698 -71.90497 21250 ft 465 kts 69°
2026-05-07 22:27 41.59871 -71.86478 21004 ft 461 kts 70°
2026-05-07 22:28 41.61012 -71.82501 20763 ft 460 kts 70°
2026-05-07 22:28 41.62146 -71.78529 20498 ft 457 kts 70°
2026-05-07 22:28 41.63257 -71.74648 20128 ft 450 kts 70°
2026-05-07 22:28 41.64386 -71.70722 19653 ft 446 kts 70°
2026-05-07 22:29 41.65500 -71.66868 19057 ft 444 kts 70°
2026-05-07 22:29 41.66604 -71.63056 18541 ft 439 kts 70°
2026-05-07 22:29 41.67692 -71.59307 18201 ft 424 kts 70°
2026-05-07 22:29 41.68735 -71.55720 17969 ft 410 kts 69°
2026-05-07 22:30 41.69761 -71.52193 17544 ft 407 kts 69°
2026-05-07 22:30 41.70792 -71.48653 17110 ft 405 kts 69°
2026-05-07 22:30 41.71811 -71.45187 16648 ft 403 kts 68°
2026-05-07 22:30 41.72942 -71.41760 16172 ft 402 kts 63°
2026-05-07 22:31 41.74253 -71.38416 15690 ft 399 kts 59°
2026-05-07 22:31 41.75625 -71.35226 15220 ft 393 kts 57°
2026-05-07 22:31 41.76949 -71.32235 14773 ft 385 kts 58°
2026-05-07 22:31 41.78314 -71.29149 14315 ft 377 kts 57°
2026-05-07 22:32 41.79615 -71.26178 13867 ft 370 kts 58°
2026-05-07 22:32 41.80898 -71.23214 13421 ft 363 kts 57°
2026-05-07 22:32 41.82138 -71.20323 12995 ft 357 kts 58°
2026-05-07 22:32 41.83371 -71.17434 12546 ft 356 kts 57°
2026-05-07 22:33 41.84596 -71.14556 12115 ft 355 kts 58°
2026-05-07 22:33 41.85796 -71.11728 12007 ft 342 kts 57°
2026-05-07 22:33 41.86966 -71.08989 12011 ft 339 kts 57°
2026-05-07 22:33 41.88145 -71.06262 12007 ft 339 kts 57°
2026-05-07 22:34 41.89341 -71.03507 12010 ft 339 kts 57°
2026-05-07 22:34 41.90506 -71.00817 12009 ft 336 kts 57°
2026-05-07 22:34 41.91683 -70.98097 12008 ft 339 kts 57°
2026-05-07 22:34 41.92876 -70.95332 12007 ft 337 kts 57°
2026-05-07 22:35 41.94048 -70.92609 12004 ft 338 kts 57°
2026-05-07 22:35 41.95206 -70.89911 11774 ft 331 kts 57°
2026-05-07 22:35 41.96348 -70.87247 11393 ft 324 kts 57°
2026-05-07 22:35 41.97650 -70.84837 11020 ft 320 kts 39°
2026-05-07 22:36 41.99395 -70.83019 10667 ft 310 kts 28°
2026-05-07 22:36 42.01175 -70.81516 10345 ft 302 kts 26°
2026-05-07 22:36 42.02976 -70.80045 10052 ft 303 kts 26°
2026-05-07 22:36 42.04744 -70.78603 9988 ft 287 kts 26°
2026-05-07 22:37 42.06413 -70.77237 9878 ft 281 kts 26°
2026-05-07 22:37 42.08122 -70.75854 9502 ft 289 kts 26°
2026-05-07 22:37 42.09816 -70.74495 9115 ft 285 kts 26°
2026-05-07 22:37 42.11521 -70.73129 8712 ft 281 kts 26°
2026-05-07 22:38 42.13184 -70.71802 8320 ft 278 kts 26°
2026-05-07 22:38 42.14717 -70.70584 7952 ft 275 kts 26°
2026-05-07 22:38 42.16372 -70.69273 7546 ft 271 kts 26°
2026-05-07 22:38 42.17998 -70.68008 7146 ft 268 kts 26°
2026-05-07 22:39 42.19517 -70.66835 6764 ft 265 kts 26°
2026-05-07 22:39 42.21098 -70.65623 6369 ft 261 kts 25°
2026-05-07 22:39 42.22671 -70.64432 5973 ft 258 kts 26°
2026-05-07 22:39 42.24238 -70.63249 5611 ft 260 kts 26°
2026-05-07 22:40 42.25843 -70.62167 5171 ft 255 kts 14°
2026-05-07 22:40 42.27576 -70.61961 4773 ft 250 kts 351°
2026-05-07 22:40 42.29291 -70.62363 4372 ft 248 kts 346°
2026-05-07 22:40 42.30961 -70.62842 3978 ft 245 kts 345°
2026-05-07 22:41 42.32628 -70.63323 3614 ft 244 kts 345°
2026-05-07 22:41 42.34278 -70.63799 3202 ft 242 kts 346°
2026-05-07 22:41 42.35916 -70.64272 3018 ft 237 kts 345°
2026-05-07 22:41 42.37470 -70.64715 3002 ft 222 kts 346°
2026-05-07 22:42 42.38934 -70.65118 3009 ft 207 kts 345°
2026-05-07 22:42 42.40330 -70.65506 3004 ft 202 kts 342°
2026-05-07 22:42 42.41524 -70.66399 2992 ft 195 kts 313°
2026-05-07 22:42 42.42077 -70.67968 2990 ft 182 kts 277°
2026-05-07 22:43 42.41753 -70.69599 3017 ft 181 kts 242°
2026-05-07 22:43 42.41083 -70.70939 3003 ft 168 kts 249°
2026-05-07 22:43 42.40708 -70.72477 3013 ft 179 kts 260°
2026-05-07 22:43 42.40390 -70.74133 3008 ft 180 kts 260°
2026-05-07 22:44 42.40079 -70.75772 3014 ft 181 kts 261°
2026-05-07 22:44 42.39786 -70.77408 3006 ft 179 kts 261°
2026-05-07 22:44 42.39499 -70.79065 2965 ft 183 kts 261°
2026-05-07 22:44 42.39207 -70.80740 2740 ft 183 kts 261°
2026-05-07 22:45 42.38915 -70.82392 2473 ft 181 kts 261°
2026-05-07 22:45 42.38629 -70.83984 2232 ft 168 kts 261°
2026-05-07 22:45 42.38367 -70.85479 2016 ft 154 kts 261°
2026-05-07 22:45 42.38127 -70.86835 1792 ft 144 kts 261°
2026-05-07 22:46 42.37900 -70.88116 1618 ft 140 kts 262°
2026-05-07 22:46 42.37679 -70.89374 1425 ft 134 kts 262°
2026-05-07 22:46 42.37467 -70.90590 1255 ft 135 kts 261°
2026-05-07 22:46 42.37250 -70.91820 1081 ft 133 kts 262°
2026-05-07 22:47 42.37030 -70.93047 893 ft 134 kts 261°
2026-05-07 22:47 42.36815 -70.94241 736 ft 131 kts 261°
2026-05-07 22:47 42.36614 -70.95453 534 ft 132 kts 262°
2026-05-07 22:47 42.36394 -70.96666 374 ft 134 kts 261°
2026-05-07 22:48 42.36170 -70.97897 169 ft 134 kts 259°
2026-05-07 22:48 42.35951 -70.99092 21 ft 131 kts 261°
2026-05-07 22:48 42.35758 -71.00340 18 ft 134 kts 259°
2026-05-07 22:48 42.35601 -71.01202 22 ft 43 kts 257°